Regional Weather Roundup
Issued by NWS Nashville, TN

Home | Current Version | Previous Version | Text Only | Print | Product List | Glossary On
Versions: 1 2 3 4 5 6 7 8 9 10 11 12 13 14 15 16 17 18 19 20 21 22 23 24 25 26 27 28 29 30 31 32 33 34 35 36 37 38 39 40 41 42 43 44 45 46 47 48 49 50
000
ASUS44 KOHX 181715
RWROHX
MIDDLE TENNESSEE HOURLY WEATHER ROUNDUP
NATIONAL WEATHER SERVICE NASHVILLE TN
1200 PM CDT THU SEP 18 2014

NOTE: "FAIR" INDICATES FEW OR NO CLOUDS BELOW 12,000 FEET WITH
NO SIGNIFICANT WEATHER AND/OR OBSTRUCTIONS TO VISIBILITY.

* THESE REPORTS ARE NOT UNDER NWS QUALITY CONTROL AND MAY NOT
  REPORT WEATHER SUCH AS PRECIPITATION AND FOG.


TNZ005>011-023>034-057-059-062>066-078-080-181800
...NORTHERN MIDDLE TENNESSEE...

CITY           SKY/WX    TMP DP  RH WIND       PRES   REMARKS
CLARKSVILLE    CLOUDY    73  56  54 NE8       30.03S
CROSSVILLE     MOSUNNY   73  50  44 E5        30.06S
GALLATIN         N/A     73  59  61 E5        30.04S
DICKSON        PTSUNNY   70  57  64 VRB7      30.02F
LEBANON        PTSUNNY   73  55  53 E5        30.01F
NASHVILLE      PTSUNNY   74  56  53 E5        30.03F
WEST NASHVILLE   N/A     73  55  53 NE5       30.02F
SMYRNA         PTSUNNY   77  55  46 E5        30.03F
SPARTA         SUNNY     75  57  53 NE3       30.03S
$$
TNZ056-058-060-061-075>077-079-093>097-181800
...SOUTHERN MIDDLE TENNESSEE...

CITY           SKY/WX    TMP DP  RH WIND       PRES   REMARKS
COLUMBIA       MOSUNNY   75  61  60 VRB5      30.00F
FAYETTEVILLE   MOSUNNY   73  55  53 CALM      30.01F
LEWISBURG      PTSUNNY   74  57  55 VRB6      30.01F
MCMINNVILLE    MOSUNNY   75  57  53 CALM      30.03S
MURFREESBORO   PTSUNNY   73  57  57 E3        30.02S
SHELBYVILLE    PTSUNNY   79  55  44 VRB5      30.03S
TULLAHOMA      SUNNY     75  52  43 CALM      30.03F
WINCHESTER     MOSUNNY   79  54  41 S3        30.02F
$$


...KEY TO REMARKS...
VSB - VISIBILITY IN MILES
WCI - WIND CHILL INDEX
HX  - HEAT INDEX



USA.gov is the U.S. government's official web portal to all federal, state and local government web resources and services.